User: anonymous   Login
Location: Franzen
(48.6167°N, 15.3833°E)
Time: 14:07:15
(UTC+00:00)
Language:

Cosmos 909 Rocket - Orbit

View from above orbital plane
View from above orbital plane
View from above satellite
View from above satellite

Ground track
Ground track

The orbit data is extracted from the following two-line orbital elements,

1 10011U 77036B   21170.89765367 -.00000029  00000-0  93102-4 0  9999
2 10011  65.8667  11.2500 0696973  25.2896  62.0658 12.32234555962415
Epoch (UTC): 19 June 2021 21:32:37
Eccentricity: 0.0696973
inclination: 65.8667°
perigee height: 988 km
apogee height: 2091 km
right ascension of ascending node: 11.2500°
argument of perigee: 25.2896°
revolutions per day: 12.32234555
mean anomaly at epoch: 62.0658°
orbit number at epoch: 96241

The dashed part of the orbit path shows where the satellite is in the earth's shadow,  

DLR